DG2MCM-11 Weather Reports


time (UTC)temp
F
wind
direction
speed
knots
gust
knots
rain 1hr
in
rain 24hr
in
rain mn
in
humidity
%
barometer
mb
20260507082831 51 0 0.0 0.0 0.00 0.00 0.00 76 1015.0
20260507081829 51 0 0.0 0.0 0.00 0.00 0.00 77 1015.1
20260507075828 51 0 0.0 0.0 0.00 0.00 0.00 78 1014.9
20260507071821 49 0 0.0 0.0 0.00 0.00 0.00 80 1015.1
20260507070819 48 0 0.0 0.0 0.00 0.00 0.00 80 1015.0
20260507065817 48 0 0.0 0.0 0.00 0.00 0.00 81 1015.0
20260507064816 49 0 0.0 0.0 0.00 0.00 0.00 78 1014.9
20260507063813 48 0 0.0 0.0 0.00 0.00 0.00 79 1014.9
20260507062812 48 0 0.0 0.0 0.00 0.00 0.00 81 1014.8
20260507055806 49 0 0.0 0.0 0.00 0.00 0.00 80 1014.3
20260507052801 48 0 0.0 0.0 0.00 0.00 0.00 78 1014.2
20260507051759 48 0 0.0 0.0 0.00 0.00 0.00 78 1014.1
20260507050757 47 0 0.0 0.0 0.00 0.00 0.00 78 1014.0
20260507045755 47 0 0.0 0.0 0.00 0.00 0.00 79 1014.1
20260507044753 47 0 0.0 0.0 0.00 0.00 0.00 79 1014.0
20260507042750 47 0 0.0 0.0 0.00 0.00 0.00 80 1013.8
20260507041749 47 0 0.0 0.0 0.00 0.00 0.00 79 1013.7
20260507035746 47 0 0.0 0.0 0.00 0.00 0.00 79 1013.5
20260507034845 47 0 0.0 0.0 0.00 0.00 0.00 79 1013.5
20260507030839 48 0 0.0 0.0 0.00 0.00 0.00 78 1013.0
20260507025837 48 0 0.0 0.0 0.00 0.00 0.00 78 1013.0
20260507022832 48 0 0.0 0.0 0.00 0.00 0.00 79 1012.9
20260507021830 48 0 0.0 0.0 0.00 0.00 0.00 79 1012.8
20260507020828 48 0 0.0 0.0 0.00 0.00 0.00 79 1012.7
20260507010820 47 0 0.0 0.0 0.00 0.00 0.00 81 1012.7
20260507005818 47 0 0.0 0.0 0.00 0.00 0.00 81 1012.6
20260506225754 48 0 0.0 0.0 0.00 0.00 0.00 80 1012.5
20260506223750 48 0 0.0 0.0 0.00 0.00 0.00 79 1012.4
20260506222748 48 0 0.0 0.0 0.00 0.00 0.00 80 1012.4
20260506214843 48 0 0.0 0.0 0.00 0.00 0.00 81 1012.3
20260506213842 48 0 0.0 0.0 0.00 0.00 0.00 80 1012.2
20260506211839 48 0 0.0 0.0 0.00 0.00 0.00 81 1012.3
20260506210836 48 0 0.0 0.0 0.00 0.00 0.00 81 1012.2
20260506203832 48 0 0.0 0.0 0.00 0.00 0.00 80 1012.0
20260506202830 48 0 0.0 0.0 0.00 0.00 0.00 80 1011.9
20260506201828 48 0 0.0 0.0 0.00 0.00 0.00 80 1011.8
20260506194823 48 0 0.0 0.0 0.00 0.00 0.00 80 1011.5
20260506193821 48 0 0.0 0.0 0.00 0.00 0.00 80 1011.4
20260506192820 48 0 0.0 0.0 0.00 0.00 0.00 80 1011.4
20260506191818 48 0 0.0 0.0 0.00 0.00 0.00 80 1011.4
20260506185816 48 0 0.0 0.0 0.00 0.00 0.00 79 1011.1
20260506184813 49 0 0.0 0.0 0.00 0.00 0.00 78 1011.0
20260506180808 50 0 0.0 0.0 0.00 0.00 0.00 76 1010.4
20260506174805 50 0 0.0 0.0 0.00 0.00 0.00 76 1010.0
20260506172801 50 0 0.0 0.0 0.00 0.00 0.00 79 1009.7
20260506170758 50 0 0.0 0.0 0.00 0.00 0.00 80 1009.7
20260506165756 50 0 0.0 0.0 0.00 0.00 0.00 79 1009.3
20260506164754 50 0 0.0 0.0 0.00 0.00 0.00 80 1009.4
20260506163752 49 0 0.0 0.0 0.00 0.00 0.00 78 1009.7
20260506161749 51 0 0.0 0.0 0.00 0.00 0.00 70 1009.3
20260506160747 52 0 0.0 0.0 0.00 0.00 0.00 70 1009.0
20260506155845 52 0 0.0 0.0 0.00 0.00 0.00 71 1009.1
20260506153843 52 0 0.0 0.0 0.00 0.00 0.00 71 1008.5
20260506152842 52 0 0.0 0.0 0.00 0.00 0.00 73 1008.2
20260506150838 52 0 0.0 0.0 0.00 0.00 0.00 73 1008.0
20260506145837 54 0 0.0 0.0 0.00 0.00 0.00 69 1007.6
20260506144835 59 0 0.0 0.0 0.00 0.00 0.00 67 1006.4
20260506142832 60 0 0.0 0.0 0.00 0.00 0.00 67 1005.5
20260506140828 61 0 0.0 0.0 0.00 0.00 0.00 65 1005.4
20260506131822 55 0 0.0 0.0 0.00 0.00 0.00 80 1007.2
20260506130820 56 0 0.0 0.0 0.00 0.00 0.00 75 1007.0
20260506124817 58 0 0.0 0.0 0.00 0.00 0.00 77 1006.4
20260506123815 57 0 0.0 0.0 0.00 0.00 0.00 79 1006.0
20260506122813 58 0 0.0 0.0 0.00 0.00 0.00 73 1005.7
20260506121811 60 0 0.0 0.0 0.00 0.00 0.00 65 1005.0
20260506115807 63 0 0.0 0.0 0.00 0.00 0.00 57 1004.3
20260506114805 65 0 0.0 0.0 0.00 0.00 0.00 54 1004.1
20260506113803 67 0 0.0 0.0 0.00 0.00 0.00 50 1003.7
20260506105748 67 0 0.0 0.0 0.00 0.00 0.00 49 1004.2
20260506104747 69 0 0.0 0.0 0.00 0.00 0.00 48 1003.8
20260506103845 72 0 0.0 0.0 0.00 0.00 0.00 44 1003.3
20260506102843 75 0 0.0 0.0 0.00 0.00 0.00 43 1002.9
20260506101842 79 0 0.0 0.0 0.00 0.00 0.00 38 1002.6
20260506093836 74 0 0.0 0.0 0.00 0.00 0.00 44 1003.9
20260506092834 66 0 0.0 0.0 0.00 0.00 0.00 52 1005.0
20260506091832 65 0 0.0 0.0 0.00 0.00 0.00 54 1005.3
20260506090830 64 0 0.0 0.0 0.00 0.00 0.00 56 1005.5
20260506085829 63 0 0.0 0.0 0.00 0.00 0.00 58 1005.4